User: anonymous   Login
Location: Caltech
(34.1382°N, 118.1253°W)
Time: 10:04:20
(UTC-07:00)
Language:

NOSS 3-4 (C) - Orbit

View from above orbital plane
View from above orbital plane
View from above satellite
View from above satellite

Ground track
Ground track

The orbit data is extracted from the following two-line orbital elements,

1 31708U 07027C   16268.41611933 0.00000000  00000-0  00000-0 0    09
2 31708  63.4030  41.0808 0167000  25.7632 334.2368 13.40714773    03
Epoch (UTC): 24 September 2016 09:59:12
Eccentricity: 0.0167000
inclination: 63.4030°
perigee height: 981 km
apogee height: 1231 km
right ascension of ascending node: 41.0808°
argument of perigee: 25.7632°
revolutions per day: 13.40714773
mean anomaly at epoch: 334.2368°
orbit number at epoch: 0

The dashed part of the orbit path shows where the satellite is in the earth's shadow,  

DLR